Visibility
15.0 15.0 15.0 15.0 15.0 15.0 13.9 15.0 15.0 15.0 15.0 0.1 6.7 0.3 15.0 15.0 15.0 15.0 15.0 15.0 15.0 15.0 15.0 15.0 15.0 15.0 15.0 15.0 15.0 15.0 15.0 15.0 15.0 15.0 15.0 15.0 15.0 15.0 15.0 15.0 14.7 3.1 15.0 11.4
15.0 14.6 13.9 9.4 7.0 10.3 15.0 15.0 4.1 14.0 15.0 0.3 15.0 15.0 15.0 15.0 15.0 15.0 15.0 15.0 15.0 15.0 15.0 15.0 15.0 15.0 15.0 15.0 15.0 15.0 15.0 15.0 15.0 15.0 15.0 15.0 15.0 15.0 15.0 15.0 15.0 15.0 8.8 12.1
15.0 15.0 15.0 15.0 12.7 15.0 12.7 15.0 1.5 8.0 0.1 14.9 15.0 0.2 0.2 4.1 15.0 15.0 15.0 15.0 15.0 15.0 15.0 15.0 15.0 15.0 15.0 15.0 15.0 15.0 15.0 15.0 15.0 15.0 15.0 15.0 15.0 15.0 15.0 15.0 15.0 15.0 15.0 15.0
15.0 15.0 15.0 15.0 15.0 15.0 15.0 5.1 1.7 11.9 0.1 0.1 0.1 14.2 11.2 11.3 13.5 4.2 4.3 6.1 15.0 15.0 0.1 15.0 15.0 15.0 15.0 15.0 15.0 15.0 15.0 15.0 15.0 15.0 15.0 15.0 15.0 15.0 15.0 15.0 15.0 14.1 15.0 15.0
15.0 15.0 15.0 15.0 15.0 15.0 15.0 12.9 0.1 1.5 0.0 0.0 0.2 11.6 0.0 15.0 15.0 15.0 15.0 0.5 4.5 6.4 0.1 15.0 0.7 14.7 11.8 7.3 15.0 15.0 15.0 8.8 14.8 13.3 15.0 15.0 15.0 15.0 15.0 15.0 15.0 15.0 15.0 15.0
15.0 15.0 15.0 15.0 15.0 15.0 15.0 15.0 15.0 4.2 4.8 15.0 0.1 0.0 0.1 10.7 5.1 12.0 15.0 15.0 10.1 0.3 15.0 15.0 15.0 15.0 15.0 5.7 15.0 15.0 15.0 0.0 0.1 3.0 15.0 15.0 14.6 15.0 15.0 15.0 15.0 15.0 15.0 15.0
15.0 15.0 15.0 15.0 15.0 15.0 15.0 15.0 12.4 0.0 0.1 0.0 0.0 0.0 0.1 8.4 15.0 0.0 15.0 15.0 15.0 15.0 15.0 15.0 15.0 15.0 15.0 15.0 15.0 15.0 15.0 15.0 1.6 0.3 14.1 1.9 15.0 15.0 15.0 15.0 15.0 15.0 15.0 15.0
15.0 15.0 15.0 15.0 15.0 15.0 15.0 15.0 10.0 0.1 0.9 15.0 15.0 15.0 15.0 15.0 15.0 15.0 15.0 15.0 15.0 15.0 15.0 15.0 15.0 15.0 15.0 15.0 15.0 15.0 15.0 15.0 15.0 1.2 3.0 15.0 15.0 15.0 15.0 15.0 15.0 15.0 15.0 15.0
15.0 15.0 15.0 15.0 15.0 15.0 15.0 15.0 15.0 6.2 0.1 13.9 15.0 15.0 15.0 15.0 15.0 15.0 15.0 15.0 15.0 15.0 15.0 15.0 12.5 13.7 15.0 15.0 15.0 15.0 15.0 15.0 15.0 0.8 0.1 9.6 15.0 15.0 15.0 15.0 15.0 15.0 15.0 15.0
15.0 14.2 13.0 15.0 15.0 15.0 15.0 15.0 15.0 15.0 3.9 15.0 15.0 15.0 15.0 15.0 15.0 15.0 15.0 15.0 15.0 15.0 15.0 13.6 14.3 8.5 15.0 15.0 15.0 15.0 15.0 15.0 0.1 0.2 0.1 13.0 15.0 15.0 15.0 15.0 15.0 15.0 15.0 15.0
15.0 13.1 12.3 14.4 14.1 11.3 15.0 15.0 15.0 15.0 6.6 15.0 15.0 15.0 15.0 15.0 15.0 12.8 15.0 15.0 15.0 7.8 0.8 15.0 15.0 15.0 15.0 15.0 15.0 15.0 15.0 15.0 10.7 15.0 1.3 0.9 15.0 15.0 15.0 15.0 15.0 15.0 15.0 15.0
15.0 15.0 15.0 15.0 15.0 15.0 11.6 15.0 14.9 14.9 0.0 0.4 15.0 15.0 15.0 15.0 15.0 15.0 15.0 14.8 15.0 15.0 0.8 2.1 1.7 2.6 15.0 15.0 15.0 15.0 15.0 15.0 15.0 14.3 14.7 15.0 15.0 15.0 15.0 15.0 15.0 15.0 15.0 15.0
15.0 15.0 15.0 15.0 15.0 15.0 10.5 15.0 15.0 5.3 0.1 12.8 15.0 15.0 15.0 15.0 15.0 15.0 14.8 15.0 15.0 15.0 15.0 15.0 15.0 2.5 0.0 3.0 15.0 15.0 15.0 15.0 15.0 14.9 15.0 15.0 15.0 15.0 15.0 15.0 15.0 15.0 15.0 15.0
15.0 13.5 15.0 15.0 15.0 15.0 15.0 15.0 15.0 2.5 0.0 0.1 15.0 15.0 15.0 15.0 15.0 15.0 15.0 15.0 15.0 15.0 15.0 5.7 0.2 2.3 15.0 8.7 0.1 2.2 15.0 15.0 15.0 15.0 15.0 15.0 15.0 15.0 15.0 15.0 15.0 15.0 15.0 15.0
13.7 15.0 8.9 9.3 13.8 12.3 13.9 15.0 15.0 15.0 11.2 7.5 15.0 15.0 15.0 15.0 15.0 15.0 15.0 15.0 15.0 15.0 0.4 0.1 0.7 15.0 3.8 15.0 15.0 13.0 15.0 15.0 15.0 15.0 15.0 15.0 15.0 15.0 15.0 15.0 15.0 15.0 15.0 15.0
15.0 15.0 15.0 15.0 14.7 10.9 14.1 15.0 15.0 15.0 15.0 2.9 0.3 14.9 15.0 15.0 15.0 15.0 15.0 15.0 15.0 5.8 0.3 0.2 9.9 15.0 0.7 0.1 12.1 15.0 15.0 15.0 15.0 15.0 15.0 15.0 15.0 15.0 15.0 15.0 15.0 15.0 15.0 15.0
11.1 12.2 15.0 13.6 10.2 5.7 6.8 15.0 15.0 15.0 2.1 0.0 0.1 3.0 15.0 15.0 15.0 15.0 15.0 15.0 15.0 15.0 1.7 0.3 6.2 4.4 2.6 0.0 0.4 15.0 15.0 15.0 15.0 15.0 15.0 15.0 15.0 15.0 15.0 15.0 15.0 15.0 15.0 15.0
15.0 13.3 14.2 15.0 13.3 5.9 11.3 15.0 15.0 10.7 7.2 0.7 0.1 6.5 13.3 13.5 8.2 15.0 8.1 0.1 0.0 0.0 0.8 0.2 0.7 7.1 0.1 0.0 15.0 15.0 15.0 15.0 15.0 15.0 15.0 15.0 15.0 15.0 15.0 15.0 15.0 15.0 15.0 15.0
15.0 6.9 7.1 7.5 14.7 4.5 15.0 15.0 15.0 15.0 14.8 7.8 7.1 5.9 15.0 15.0 7.7 1.0 0.0 0.0 0.0 0.0 0.0 0.0 0.0 0.1 0.0 12.9 15.0 15.0 15.0 15.0 15.0 15.0 15.0 15.0 15.0 15.0 15.0 15.0 15.0 15.0 15.0 15.0
14.8 11.9 0.2 0.6 15.0 15.0 15.0 14.9 9.5 0.1 0.1 0.1 1.3 15.0 15.0 0.4 15.0 4.9 0.0 0.0 0.1 0.0 0.2 0.1 0.0 0.9 15.0 15.0 15.0 15.0 15.0 15.0 15.0 15.0 15.0 15.0 15.0 15.0 15.0 15.0 15.0 15.0 15.0 15.0
13.9 0.2 0.7 15.0 15.0 15.0 12.4 13.7 0.2 1.7 0.1 11.0 11.5 15.0 15.0 15.0 15.0 15.0 11.5 1.4 0.3 0.0 0.9 0.1 0.1 14.1 15.0 15.0 15.0 15.0 15.0 15.0 15.0 15.0 15.0 15.0 15.0 15.0 15.0 15.0 15.0 15.0 15.0 15.0
13.5 9.0 15.0 15.0 15.0 5.3 0.5 0.2 9.7 6.9 0.6 15.0 11.8 15.0 15.0 15.0 15.0 5.1 0.6 0.2 1.1 0.1 0.0 0.1 1.4 15.0 15.0 15.0 15.0 15.0 15.0 15.0 15.0 15.0 15.0 15.0 15.0 15.0 15.0 15.0 15.0 15.0 15.0 15.0
0.1 0.3 13.2 14.1 0.9 0.1 1.3 3.7 15.0 1.4 3.1 0.1 0.1 0.1 0.0 0.0 0.0 0.1 0.1 0.0 0.1 11.6 0.2 11.8 15.0 15.0 15.0 15.0 15.0 15.0 15.0 15.0 15.0 15.0 15.0 15.0 15.0 15.0 15.0 15.0 15.0 15.0 15.0 15.0
0.1 0.1 0.6 2.7 1.8 2.6 15.0 12.9 0.6 12.4 2.2 0.9 0.2 0.0 0.0 0.0 0.0 0.0 0.1 2.4 2.7 0.4 0.2 13.6 14.5 15.0 15.0 15.0 15.0 15.0 15.0 15.0 15.0 15.0 15.0 15.0 15.0 15.0 15.0 15.0 15.0 15.0 15.0 15.0
0.1 0.3 8.3 0.2 15.0 13.2 5.8 1.4 1.1 4.3 8.0 0.1 0.5 1.8 0.0 0.0 0.0 0.1 0.3 0.1 4.6 13.9 15.0 14.9 12.2 15.0 15.0 15.0 15.0 15.0 15.0 15.0 15.0 15.0 15.0 15.0 15.0 15.0 15.0 15.0 15.0 15.0 15.0 15.0
0.1 0.2 2.6 15.0 1.1 14.1 15.0 15.0 14.6 15.0 12.7 0.4 0.1 0.1 0.0 0.1 0.2 0.1 0.6 9.3 12.3 15.0 12.1 15.0 15.0 15.0 15.0 15.0 15.0 15.0 15.0 15.0 15.0 15.0 15.0 15.0 15.0 15.0 15.0 15.0 15.0 15.0 15.0 15.0
0.4 0.2 5.9 5.9 5.5 6.5 15.0 8.5 15.0 15.0 0.9 0.1 0.1 0.1 0.2 0.1 0.3 0.2 15.0 15.0 15.0 12.7 0.9 15.0 15.0 15.0 15.0 15.0 15.0 15.0 15.0 15.0 15.0 15.0 15.0 15.0 15.0 15.0 15.0 15.0 15.0 15.0 15.0 15.0